loading
DOY 173 | 2024-06-21T04:28:52Z

THOR ABLESTAR DEB, 357

Orbit data source: Space-Track

THOR ABLESTAR DEB, 357 is space debris in LEO originally from a launch on Thu, 29 Jun 1961 UTC launched from the Air Force Eastern Test Range (AFETR). Debris objects in space refer to the collection of defunct objects orbiting the Earth. Examples of debris include non-operational satellites, rocket bodies, and fragments generated from explosions, collisions, or faulty payload assembly.

Loading next visibility...
Loading greatness...
THOR ABLESTAR DEB details
NORAD ID357
COSPAR ID
1961-015DX
Orbit
LEO
Last TLE update2 days ago
Origin
Flag of USUSAF SSD (US)
ManufacturerUnknown
BusUnknown
MotorUnknown
MassWet unknown, Dry mass unknown
Launch date (UTC)
1961-06-29 (63 years ago)
Launch vehicleUnknown
Launch site
Air Force Eastern Test Range (AFETR)
Object type
Payload
Rocket body
Debris
Radar Cross SectionSmall (<0.1 m²)
Predictive object data (real-time)
Latitude-60.87844°
Longitude51.92736°
Altitude889.32 km
Speed7.409 km/s
Apparent Right ascension05h 49m 46s
Apparent Declination-59° 34' 18"
Sunlit
Object is in daylight
Predictive observer data (real-time)
Local Sidereal Time15:27:52
Azimuth216.537° SW
Elevation-60.414°
Doppler factor1
Orbital elements
Apogee879.968 km
Perigee857.991 km
Semi-major axis7,247.117 km
Eccentricity0.0015163
Inclination66.8096°
RAAN275.0862°
Arg. of periapsis322.2884°
True anomaly37.82035°
Mean anomaly37.7139°
Mean motion3.518 °/min
BSTAR0.00063985
Period102.33 mins
Definitive object data (Epoch: 2024-06-19T12:02:32.305Z)
Latitude-0.00005°
Longitude-173.75567°
Altitude864.002 km
Speed7.425 km/s
True Right ascension18h 20m 20s
True Declination0° 00' 00"
Sunlit
Object was in full shadow at TLE epoch
TLE from 2 days ago
0 THOR ABLESTAR DEB
1 00357U 61015DX  24171.50176280  .00000985  00000-0  63985-3 0  9998
2 00357  66.8096 275.0862 0015163 322.2884  37.7139 14.06725265193389
Epoch: 2024-06-19T12:02Z
No data available

THOR ABLESTAR DEB Visibility forecast

Observer location: 39.9160978°, -105.1181434, 0m alt.

THOR ABLESTAR DEB is not visible in the next 10 days
Span
Click to sort rows by Start time (UTC) header in descending order
Start Az.
Max El. time (UTC)
Max El. Az.
Max El.
End time (UTC)
End Az.